Location: Härggis
(46.9540°N, 8.4897°E)
Time: 02:17:47
(UTC+00:00)

Cosmos 1455 - Pass Details

Date: 27 May 2022
Orbit: 492 x 515 km, 82.5° (Epoch: 26 June)

Event Time Altitude Azimuth Distance (km) Brightness Sun altitude
Rises 02:01:35 0° 339° (NNW) 2,585 6.2 -13.0°
Reaches altitude 10° 02:03:55 10° 327° (NNW) 1,696 5.1 -12.8°
Maximum altitude 02:07:02 26° 270° (W) 1,007 3.3 -12.4°
Enters shadow 02:08:35 19° 232° (SW) 1,215 3.5 -12.3°
